User: anonymous   Login
Location: Belvedere Heights
(33.9836°N, 117.3109°W)
Time: 11:18:21
(UTC+00:00)
Language:

Atlas Centaur 2 - Orbit

View from above orbital plane
View from above orbital plane
View from above satellite
View from above satellite

Ground track
Ground track

The orbit data is extracted from the following two-line orbital elements,

1 00694U 63047A   24107.39036137  .00002824  00000-0  34798-3 0  9995
2 00694  30.3534  91.7502 0566981 119.2755 246.5723 14.07245512 33846
Epoch (UTC): 16 April 2024 09:22:07
Eccentricity: 0.0566981
inclination: 30.3534°
perigee height: 458 km
apogee height: 1280 km
right ascension of ascending node: 91.7502°
argument of perigee: 119.2755°
revolutions per day: 14.07245512
mean anomaly at epoch: 246.5723°
orbit number at epoch: 3384

The dashed part of the orbit path shows where the satellite is in the earth's shadow,  

DLR